sat.trackr.live / text

‹ back to catalog

STARLINK-37058

NORAD 68195 · 2026-050AE

PAYLOAD ACTIVE UNKNOWN

§ Identity

Operator
Country
US
Launch date
2026-03-14
Launch site
AFETR
Launch vehicle
Mass (kg)
RCS (m²)

Purposes: comms

External: N2YO · Heavens-Above · Gunter

§ Orbital elements

Epoch: 2026-09-20T04:33:31.523616Z

Period
93.85 min
Inclination
53.1581°
Eccentricity
0.0000791
Mean motion
15.34403231 rev/d
Perigee alt
462.2 km
Apogee alt
463.2 km
Semi-major
6,840.8 km
B*
3.8610e-4
RAAN
78.9336°
Arg perigee
54.2593°
Mean anomaly
305.8483°
Rev number
2,896

§ Raw data

STARLINK-370581 68195U 26050AE  26263.18994819  .00012692  00000+0  38610-3 0  99902 68195  53.1581  78.9336 0000791  54.2593 305.8483 15.34403231 28967

JSON: /api/v1/satellites/68195 · /tle

For live sub-satellite position, see the globe view (requires WebGL).

§ Visibility from observer

Set your observer location to see the next 7 days of passes ≥ 10°. The values pass through the URL so the page stays shareable.

No JS? Fill the form by hand. The geolocation button needs JavaScript.